Location: Emory University Observatory
(33.7903°N, 84.3267°W)
Time: 08:05:04
(UTC-04:00)

Tiangong 1 - Pass Details

Date: 16 October 2017
Orbit: 292 x 320 km, 42.8° (Epoch: 22 October)

Event Time Altitude Azimuth Distance (km) Brightness Sun altitude
Rises 20:25:17 0° 295° (WNW) 2,036 5.9 -18.1°
Reaches altitude 10° 20:27:18 10° 291° (WNW) 1,200 4.6 -18.5°
Enters shadow 20:29:45 51° 230° (SW) 397 1.3 -19.0°
